EDW373 HKMO-LSZH

Flight info

Callsign EDW373
Flight time N/A
Altitude 34000
Route NERAG1A GADLA UL434 NN UW325 SIPKI L433 BUN UG862 AMPER/N0500F360 UG862 DIR UB730 RAKOM/N0493F380 UB730 DJA DCT EBA UG869 DOPEL DCT GOPAT L978 BEBEV DCT OKBON DCT RAPUR DCT TORTU DCT CANNE Z651 KELIP
Aircraft A359/H-SDE2E3GHIJ3J4J5LM1ORWXY/LB1D1

Departure

Time 2026-04-19 09:51
Airport Moi International Airport (HKMO)

Arrival

Time N/A
Airport Zürich Airport (LSZH)
Time Latitude Longitude Altitude Speed Heading
2026-04-19 09:26 -4.03060 39.60267 209 ft 0 kts 121°
2026-04-19 09:39 -4.03061 39.60267 209 ft 0 kts 121°
2026-04-19 09:39 -4.03061 39.60268 209 ft 0 kts 121°
2026-04-19 09:40 -4.03060 39.60266 209 ft 1 kts 121°
2026-04-19 09:40 -4.03052 39.60252 209 ft 3 kts 120°
2026-04-19 09:40 -4.03041 39.60234 209 ft 2 kts 109°
2026-04-19 09:40 -4.03039 39.60215 209 ft 2 kts 79°
2026-04-19 09:41 -4.03046 39.60195 209 ft 1 kts 58°
2026-04-19 09:41 -4.03053 39.60189 209 ft 0 kts 28°
2026-04-19 09:44 -4.03047 39.60192 209 ft 3 kts 28°
2026-04-19 09:44 -4.03015 39.60210 209 ft 5 kts 29°
2026-04-19 09:44 -4.02975 39.60222 210 ft 7 kts 358°
2026-04-19 09:45 -4.02928 39.60190 209 ft 8 kts 305°
2026-04-19 09:45 -4.02895 39.60136 208 ft 9 kts 300°
2026-04-19 09:45 -4.02857 39.60071 207 ft 11 kts 298°
2026-04-19 09:45 -4.02827 39.60025 206 ft 3 kts 324°
2026-04-19 09:46 -4.02787 39.60021 204 ft 7 kts 14°
2026-04-19 09:46 -4.02728 39.60049 202 ft 10 kts 27°
2026-04-19 09:46 -4.02660 39.60086 202 ft 11 kts 30°
2026-04-19 09:46 -4.02585 39.60128 201 ft 13 kts 29°
2026-04-19 09:47 -4.02502 39.60176 199 ft 14 kts 29°
2026-04-19 09:47 -4.02411 39.60225 200 ft 14 kts 29°
2026-04-19 09:47 -4.02322 39.60276 200 ft 15 kts 30°
2026-04-19 09:47 -4.02229 39.60328 200 ft 15 kts 29°
2026-04-19 09:48 -4.02136 39.60381 201 ft 14 kts 30°
2026-04-19 09:48 -4.02049 39.60430 203 ft 13 kts 29°
2026-04-19 09:48 -4.01965 39.60476 205 ft 14 kts 28°
2026-04-19 09:48 -4.01872 39.60528 206 ft 15 kts 30°
2026-04-19 09:49 -4.01771 39.60584 207 ft 17 kts 30°
2026-04-19 09:49 -4.01656 39.60649 208 ft 19 kts 29°
2026-04-19 09:49 -4.01537 39.60715 212 ft 18 kts 25°
2026-04-19 09:49 -4.01416 39.60728 213 ft 17 kts 344°
2026-04-19 09:50 -4.01344 39.60659 215 ft 12 kts 271°
2026-04-19 09:50 -4.01402 39.60592 212 ft 14 kts 213°
2026-04-19 09:50 -4.01546 39.60510 208 ft 50 kts 209°
2026-04-19 09:50 -4.02062 39.60223 192 ft 117 kts 209°
2026-04-19 09:51 -4.02950 39.59728 201 ft 171 kts 211°
2026-04-19 09:51 -4.04063 39.59124 650 ft 183 kts 207°
2026-04-19 09:51 -4.05172 39.58509 1345 ft 184 kts 210°
2026-04-19 09:51 -4.06081 39.57641 1986 ft 186 kts 249°
2026-04-19 09:52 -4.06090 39.56447 2633 ft 175 kts 287°
2026-04-19 09:52 -4.05643 39.55294 3131 ft 179 kts 291°
2026-04-19 09:52 -4.05165 39.54136 3468 ft 184 kts 290°
2026-04-19 09:52 -4.04700 39.52888 3700 ft 194 kts 288°
2026-04-19 09:53 -4.04260 39.51573 3928 ft 205 kts 286°
2026-04-19 09:53 -4.03826 39.50177 4166 ft 216 kts 285°
2026-04-19 09:53 -4.03386 39.48702 4412 ft 228 kts 285°
2026-04-19 09:53 -4.02928 39.47145 4651 ft 241 kts 285°
2026-04-19 09:54 -4.02442 39.45479 4918 ft 255 kts 285°
2026-04-19 09:54 -4.01937 39.43743 5199 ft 269 kts 285°
2026-04-19 09:54 -4.01396 39.41883 5485 ft 284 kts 285°
2026-04-19 09:54 -4.00838 39.39964 5914 ft 292 kts 285°
2026-04-19 09:55 -4.00258 39.38008 6474 ft 295 kts 288°
2026-04-19 09:55 -3.99590 39.36064 7037 ft 297 kts 289°
2026-04-19 09:55 -3.98900 39.34115 7590 ft 300 kts 290°
2026-04-19 09:55 -3.98207 39.32155 8121 ft 302 kts 290°
2026-04-19 09:56 -3.97499 39.30155 8651 ft 305 kts 290°
2026-04-19 09:56 -3.96791 39.28152 9171 ft 307 kts 290°
2026-04-19 09:56 -3.96073 39.26124 9682 ft 310 kts 290°
2026-04-19 09:56 -3.95348 39.24079 10170 ft 313 kts 290°
2026-04-19 09:57 -3.94609 39.21998 10442 ft 324 kts 290°
2026-04-19 09:57 -3.93843 39.19838 10678 ft 336 kts 290°
2026-04-19 09:57 -3.93045 39.17591 10912 ft 348 kts 290°
2026-04-19 09:57 -3.92219 39.15265 11150 ft 360 kts 290°
2026-04-19 09:58 -3.91367 39.12865 11368 ft 372 kts 290°
2026-04-19 09:58 -3.90488 39.10387 11578 ft 383 kts 290°
2026-04-19 09:58 -3.89581 39.07836 11796 ft 394 kts 290°
2026-04-19 09:58 -3.88651 39.05250 11981 ft 405 kts 290°
2026-04-19 09:59 -3.87688 39.02570 12178 ft 415 kts 290°
2026-04-19 09:59 -3.86703 38.99818 12525 ft 420 kts 290°
2026-04-19 09:59 -3.85714 38.97040 12957 ft 423 kts 290°
2026-04-19 09:59 -3.84732 38.94279 13381 ft 425 kts 290°
2026-04-19 10:00 -3.83741 38.91489 13795 ft 428 kts 290°
2026-04-19 10:00 -3.82744 38.88679 14196 ft 430 kts 290°
2026-04-19 10:00 -3.81743 38.85860 14610 ft 431 kts 290°
2026-04-19 10:00 -3.80733 38.83013 15004 ft 434 kts 290°
2026-04-19 10:01 -3.79718 38.80152 15382 ft 436 kts 290°
2026-04-19 10:01 -3.78711 38.77315 15743 ft 438 kts 290°
2026-04-19 10:01 -3.77685 38.74423 16114 ft 439 kts 290°
2026-04-19 10:01 -3.76659 38.71535 16495 ft 441 kts 290°
2026-04-19 10:02 -3.75634 38.68648 16845 ft 443 kts 290°
2026-04-19 10:02 -3.74600 38.65739 17211 ft 444 kts 290°
2026-04-19 10:02 -3.73598 38.62813 17576 ft 446 kts 288°
2026-04-19 10:02 -3.72745 38.59825 17906 ft 448 kts 285°
2026-04-19 10:03 -3.72056 38.56771 18231 ft 450 kts 283°
2026-04-19 10:03 -3.71429 38.53724 18532 ft 452 kts 282°
2026-04-19 10:03 -3.70801 38.50624 18845 ft 454 kts 282°
2026-04-19 10:03 -3.70168 38.47504 19169 ft 456 kts 282°
2026-04-19 10:04 -3.69537 38.44402 19474 ft 457 kts 283°
2026-04-19 10:04 -3.68898 38.41272 19758 ft 459 kts 283°
2026-04-19 10:04 -3.68255 38.38131 20039 ft 461 kts 283°
2026-04-19 10:04 -3.67616 38.35022 20333 ft 463 kts 283°
2026-04-19 10:05 -3.66968 38.31854 20623 ft 464 kts 283°
2026-04-19 10:05 -3.66320 38.28682 20896 ft 466 kts 283°
2026-04-19 10:05 -3.65672 38.25518 21161 ft 468 kts 283°
2026-04-19 10:05 -3.65012 38.22298 21428 ft 469 kts 283°
2026-04-19 10:06 -3.64357 38.19107 21687 ft 471 kts 283°
2026-04-19 10:06 -3.63700 38.15907 21956 ft 472 kts 283°
2026-04-19 10:06 -3.63035 38.12675 22202 ft 473 kts 283°
2026-04-19 10:06 -3.62377 38.09480 22444 ft 475 kts 283°
2026-04-19 10:07 -3.61705 38.06220 22688 ft 476 kts 283°
2026-04-19 10:07 -3.61040 38.02991 22929 ft 478 kts 283°
2026-04-19 10:07 -3.60391 37.99707 23166 ft 480 kts 282°
2026-04-19 10:07 -3.59769 37.96425 23388 ft 482 kts 282°
2026-04-19 10:08 -3.59131 37.93148 23607 ft 483 kts 283°
2026-04-19 10:08 -3.58333 37.89867 23850 ft 484 kts 286°
2026-04-19 10:08 -3.57362 37.86636 24050 ft 485 kts 289°
2026-04-19 10:08 -3.56257 37.83443 24254 ft 487 kts 290°
2026-04-19 10:09 -3.55121 37.80234 24459 ft 489 kts 289°
2026-04-19 10:09 -3.54081 37.77009 24661 ft 491 kts 287°
2026-04-19 10:09 -3.53206 37.73705 24861 ft 492 kts 283°
2026-04-19 10:09 -3.52514 37.70367 25066 ft 494 kts 280°
2026-04-19 10:10 -3.51948 37.66983 25259 ft 495 kts 279°
2026-04-19 10:10 -3.51399 37.63568 25456 ft 497 kts 279°
2026-04-19 10:10 -3.50855 37.60166 25632 ft 498 kts 279°
2026-04-19 10:10 -3.50307 37.56750 25789 ft 500 kts 279°
2026-04-19 10:11 -3.49750 37.53304 25965 ft 501 kts 279°
2026-04-19 10:11 -3.49586 37.52293 26014 ft 502 kts 279°
2026-04-19 10:11 -3.49174 37.49758 26142 ft 503 kts 279°
2026-04-19 10:11 -3.48618 37.46336 26308 ft 504 kts 279°
2026-04-19 10:12 -3.48050 37.42855 26467 ft 505 kts 279°
2026-04-19 10:12 -3.47482 37.39368 26655 ft 506 kts 279°
2026-04-19 10:12 -3.46917 37.35902 26795 ft 508 kts 279°
2026-04-19 10:12 -3.46351 37.32431 26947 ft 509 kts 279°
2026-04-19 10:13 -3.45782 37.28931 27097 ft 510 kts 279°
2026-04-19 10:13 -3.45216 37.25457 27249 ft 511 kts 279°
2026-04-19 10:13 -3.44639 37.21923 27379 ft 512 kts 279°
2026-04-19 10:13 -3.44064 37.18407 27522 ft 513 kts 279°
2026-04-19 10:14 -3.43451 37.14923 27647 ft 514 kts 283°
2026-04-19 10:14 -3.42415 37.11514 27786 ft 515 kts 291°
2026-04-19 10:14 -3.40876 37.08275 27995 ft 514 kts 300°
2026-04-19 10:14 -3.38920 37.05311 28196 ft 513 kts 306°
2026-04-19 10:15 -3.36803 37.02449 28381 ft 513 kts 307°
2026-04-19 10:15 -3.34635 36.99577 28535 ft 514 kts 307°
2026-04-19 10:15 -3.32489 36.96736 28683 ft 514 kts 307°
2026-04-19 10:15 -3.30351 36.93893 28869 ft 514 kts 307°
2026-04-19 10:16 -3.28201 36.91019 29105 ft 513 kts 307°
2026-04-19 10:16 -3.26084 36.88180 29356 ft 511 kts 307°
2026-04-19 10:16 -3.23952 36.85318 29632 ft 509 kts 307°
2026-04-19 10:16 -3.21847 36.82486 29908 ft 507 kts 307°
2026-04-19 10:17 -3.19751 36.79667 30150 ft 506 kts 307°
2026-04-19 10:17 -3.17640 36.76828 30373 ft 505 kts 307°
2026-04-19 10:17 -3.15563 36.74034 30592 ft 504 kts 307°
2026-04-19 10:17 -3.13460 36.71206 30832 ft 503 kts 307°
2026-04-19 10:18 -3.11396 36.68430 31035 ft 502 kts 307°
2026-04-19 10:18 -3.09315 36.65633 31204 ft 502 kts 307°
2026-04-19 10:18 -3.07226 36.62824 31363 ft 502 kts 307°
2026-04-19 10:19 -3.03071 36.57239 31727 ft 500 kts 307°
2026-04-19 10:19 -3.00983 36.54432 31941 ft 499 kts 307°
2026-04-19 10:19 -2.98919 36.51656 32146 ft 498 kts 307°
2026-04-19 10:19 -2.96873 36.48903 32335 ft 496 kts 307°
2026-04-19 10:20 -2.94792 36.46102 32497 ft 496 kts 307°
2026-04-19 10:20 -2.92758 36.43368 32604 ft 497 kts 307°
2026-04-19 10:20 -2.88623 36.37812 32802 ft 499 kts 307°
2026-04-19 10:21 -2.86535 36.35024 32931 ft 499 kts 307°
2026-04-19 10:21 -2.84475 36.32258 33046 ft 499 kts 307°
2026-04-19 10:21 -2.82405 36.29466 33161 ft 500 kts 307°
2026-04-19 10:21 -2.80330 36.26646 33283 ft 500 kts 306°
2026-04-19 10:22 -2.78368 36.23765 33384 ft 501 kts 303°
2026-04-19 10:22 -2.76471 36.20870 33453 ft 502 kts 303°
2026-04-19 10:22 -2.72535 36.15084 33574 ft 504 kts 307°
2026-04-19 10:23 -2.68219 36.09552 33748 ft 504 kts 309°
2026-04-19 10:23 -2.66051 36.06806 33851 ft 504 kts 309°
2026-04-19 10:23 -2.63866 36.04036 33941 ft 505 kts 309°
2026-04-19 10:24 -2.59534 35.98534 34084 ft 506 kts 309°
2026-04-19 10:24 -2.55194 35.92967 34098 ft 506 kts 307°
2026-04-19 10:25 -2.51014 35.87318 34107 ft 506 kts 307°
2026-04-19 10:25 -2.46825 35.81670 34109 ft 506 kts 307°
2026-04-19 10:26 -2.42627 35.76037 34124 ft 506 kts 307°
2026-04-19 10:26 -2.38438 35.70416 34141 ft 507 kts 307°
2026-04-19 10:27 -2.34210 35.64738 34166 ft 507 kts 307°
2026-04-19 10:27 -2.30015 35.59107 34188 ft 506 kts 307°
2026-04-19 10:28 -2.25830 35.53490 34200 ft 506 kts 307°
2026-04-19 10:28 -2.21612 35.47828 34214 ft 506 kts 307°
2026-04-19 10:29 -2.17418 35.42199 34217 ft 507 kts 307°
2026-04-19 10:29 -2.13194 35.36531 34219 ft 508 kts 307°
2026-04-19 10:30 -2.08984 35.30862 34221 ft 507 kts 307°
2026-04-19 10:30 -2.04788 35.25205 34227 ft 507 kts 307°
2026-04-19 10:31 -2.00579 35.19552 34224 ft 507 kts 307°
2026-04-19 10:31 -1.96362 35.13896 34225 ft 507 kts 307°
2026-04-19 10:32 -1.92155 35.08258 34218 ft 508 kts 307°
2026-04-19 10:32 -1.87917 35.02591 34212 ft 508 kts 308°
2026-04-19 10:33 -1.83674 34.96936 34210 ft 508 kts 307°
2026-04-19 10:33 -1.79444 34.91277 34202 ft 508 kts 307°
2026-04-19 10:34 -1.75243 34.85645 34201 ft 507 kts 307°
2026-04-19 10:34 -1.71034 34.79997 34197 ft 507 kts 307°
2026-04-19 10:35 -1.66830 34.74359 34194 ft 507 kts 307°
2026-04-19 10:35 -1.62628 34.68720 34183 ft 508 kts 307°
2026-04-19 10:36 -1.58400 34.63042 34173 ft 507 kts 307°
2026-04-19 10:36 -1.54194 34.57398 34159 ft 506 kts 307°
2026-04-19 10:37 -1.49999 34.51782 34147 ft 506 kts 307°
2026-04-19 10:37 -1.45789 34.46147 34144 ft 506 kts 307°
2026-04-19 10:38 -1.41564 34.40486 34144 ft 507 kts 307°
2026-04-19 10:38 -1.37378 34.34873 34132 ft 507 kts 307°
2026-04-19 10:39 -1.33183 34.29219 34133 ft 507 kts 307°
2026-04-19 10:39 -1.28966 34.23556 34114 ft 506 kts 307°
2026-04-19 10:40 -1.24761 34.17922 34112 ft 506 kts 307°
2026-04-19 10:40 -1.20568 34.12309 34104 ft 506 kts 307°
2026-04-19 10:41 -1.16360 34.06676 34094 ft 506 kts 307°
2026-04-19 10:41 -1.12137 34.01021 34080 ft 506 kts 307°
2026-04-19 10:42 -1.07919 33.95376 34070 ft 506 kts 307°
2026-04-19 10:42 -1.03727 33.89761 34064 ft 506 kts 307°
2026-04-19 10:43 -0.99506 33.84108 34064 ft 506 kts 307°
2026-04-19 10:43 -0.95293 33.78464 34064 ft 506 kts 307°
2026-04-19 10:44 -0.91117 33.72868 34064 ft 506 kts 307°
2026-04-19 10:44 -0.86879 33.67216 34064 ft 506 kts 308°
2026-04-19 10:45 -0.82667 33.61613 34064 ft 506 kts 307°
2026-04-19 10:45 -0.78461 33.55992 34066 ft 506 kts 307°
2026-04-19 10:46 -0.74249 33.50348 34067 ft 506 kts 307°
2026-04-19 10:46 -0.70038 33.44706 34068 ft 506 kts 307°
2026-04-19 10:47 -0.65831 33.39066 34070 ft 505 kts 307°
2026-04-19 10:47 -0.61670 33.33483 34070 ft 504 kts 307°
2026-04-19 10:48 -0.57492 33.27864 34074 ft 504 kts 307°
2026-04-19 10:48 -0.53281 33.22225 34072 ft 504 kts 307°
2026-04-19 10:49 -0.49101 33.16630 34076 ft 504 kts 307°
2026-04-19 10:49 -0.44910 33.11019 34075 ft 503 kts 307°
2026-04-19 10:50 -0.40740 33.05438 34081 ft 502 kts 307°
2026-04-19 10:50 -0.36556 32.99836 34085 ft 501 kts 307°
2026-04-19 10:51 -0.32418 32.94300 34087 ft 501 kts 307°
2026-04-19 10:51 -0.28231 32.88697 34087 ft 501 kts 307°
2026-04-19 10:52 -0.24081 32.83142 34087 ft 501 kts 307°
2026-04-19 10:52 -0.19920 32.77571 34088 ft 501 kts 307°
2026-04-19 10:53 -0.15751 32.71989 34080 ft 501 kts 307°
2026-04-19 10:53 -0.11567 32.66389 34081 ft 501 kts 307°
2026-04-19 10:54 -0.07417 32.60834 34079 ft 501 kts 307°
2026-04-19 10:54 -0.03249 32.55254 34086 ft 500 kts 307°
2026-04-19 10:55 0.00923 32.49670 34088 ft 501 kts 307°
2026-04-19 10:55 0.05079 32.44090 34089 ft 501 kts 306°
2026-04-19 10:56 0.09036 32.38353 34093 ft 502 kts 305°
2026-04-19 10:56 0.12980 32.32579 34095 ft 501 kts 305°
2026-04-19 10:57 0.16879 32.26861 34091 ft 501 kts 305°
2026-04-19 10:57 0.20814 32.21086 34090 ft 502 kts 305°
2026-04-19 10:58 0.24728 32.15350 34097 ft 502 kts 305°
2026-04-19 10:58 0.28677 32.09556 34095 ft 503 kts 305°
2026-04-19 10:59 0.32588 32.03817 34096 ft 502 kts 305°
2026-04-19 10:59 0.36506 31.98062 34100 ft 502 kts 305°
2026-04-19 11:00 0.40446 31.92262 34096 ft 503 kts 305°
2026-04-19 11:00 0.44370 31.86487 34099 ft 503 kts 305°
2026-04-19 11:01 0.48289 31.80717 34101 ft 503 kts 305°
2026-04-19 11:01 0.52204 31.74952 34091 ft 503 kts 305°
2026-04-19 11:02 0.56121 31.69183 34098 ft 503 kts 305°
2026-04-19 11:02 0.60069 31.63368 34093 ft 503 kts 305°
2026-04-19 11:03 0.63984 31.57598 34103 ft 504 kts 305°
2026-04-19 11:03 0.67915 31.51820 34100 ft 504 kts 305°
2026-04-19 11:04 0.71864 31.46049 34105 ft 503 kts 305°
2026-04-19 11:04 0.75805 31.40284 34101 ft 504 kts 305°
2026-04-19 11:05 0.79770 31.34482 34095 ft 504 kts 305°
2026-04-19 11:05 0.83706 31.28686 34085 ft 505 kts 305°
2026-04-19 11:06 0.87639 31.22901 34081 ft 505 kts 305°
2026-04-19 11:06 0.91587 31.17111 34075 ft 506 kts 305°
2026-04-19 11:07 0.95550 31.11307 34072 ft 506 kts 305°
2026-04-19 11:07 0.99510 31.05507 34068 ft 506 kts 305°
2026-04-19 11:08 1.03473 30.99705 34067 ft 505 kts 305°
2026-04-19 11:08 1.07441 30.93893 34059 ft 506 kts 305°
2026-04-19 11:09 1.11391 30.88115 34055 ft 506 kts 305°
2026-04-19 11:09 1.15386 30.82307 34049 ft 506 kts 305°
2026-04-19 11:10 1.19367 30.76487 34039 ft 507 kts 305°
2026-04-19 11:10 1.23302 30.70719 34029 ft 506 kts 305°
2026-04-19 11:11 1.27266 30.64909 34010 ft 506 kts 305°
2026-04-19 11:11 1.31305 30.59135 33995 ft 505 kts 306°
2026-04-19 11:12 1.35328 30.53408 33979 ft 505 kts 306°
2026-04-19 11:12 1.39363 30.47645 33970 ft 506 kts 306°
2026-04-19 11:13 1.43382 30.41898 33990 ft 506 kts 306°
2026-04-19 11:13 1.47411 30.36131 34021 ft 505 kts 306°
2026-04-19 11:14 1.51419 30.30372 34048 ft 505 kts 305°
2026-04-19 11:14 1.55442 30.24638 34076 ft 504 kts 307°
2026-04-19 11:15 1.59851 30.19219 34086 ft 503 kts 312°
2026-04-19 11:15 1.64466 30.13968 34072 ft 503 kts 312°
2026-04-19 11:16 1.69096 30.08711 34059 ft 503 kts 312°
2026-04-19 11:16 1.73710 30.03461 34032 ft 503 kts 312°
2026-04-19 11:17 1.78319 29.98214 34013 ft 503 kts 312°
2026-04-19 11:17 1.82904 29.92992 34022 ft 502 kts 312°
2026-04-19 11:18 1.87509 29.87743 34018 ft 502 kts 312°
2026-04-19 11:18 1.92134 29.82479 34025 ft 501 kts 312°
2026-04-19 11:19 1.96792 29.77292 34018 ft 502 kts 313°
2026-04-19 11:19 2.01460 29.72120 34012 ft 501 kts 313°
2026-04-19 11:20 2.06130 29.66943 34004 ft 501 kts 313°
2026-04-19 11:20 2.10799 29.61767 34003 ft 501 kts 313°
2026-04-19 11:21 2.15457 29.56632 33999 ft 500 kts 313°
2026-04-19 11:22 2.22459 29.48872 33994 ft 500 kts 313°
2026-04-19 11:22 2.27136 29.43710 33989 ft 501 kts 313°
2026-04-19 11:23 2.31801 29.38560 33982 ft 501 kts 313°
2026-04-19 11:23 2.36462 29.33402 33983 ft 500 kts 312°
2026-04-19 11:24 2.41109 29.28228 33977 ft 500 kts 312°
2026-04-19 11:24 2.45771 29.23049 33978 ft 500 kts 312°
2026-04-19 11:25 2.50428 29.17891 33973 ft 499 kts 312°
2026-04-19 11:25 2.55057 29.12763 33972 ft 500 kts 312°
2026-04-19 11:26 2.59729 29.07590 33967 ft 501 kts 312°
2026-04-19 11:26 2.64415 29.02401 33968 ft 501 kts 312°
2026-04-19 11:27 2.69057 28.97259 33966 ft 500 kts 312°
2026-04-19 11:27 2.73706 28.92106 33958 ft 498 kts 312°
2026-04-19 11:28 2.78360 28.86952 33956 ft 498 kts 312°
2026-04-19 11:28 2.82981 28.81832 33946 ft 498 kts 312°
2026-04-19 11:29 2.87645 28.76664 33941 ft 498 kts 312°
2026-04-19 11:29 2.92290 28.71519 33932 ft 500 kts 312°
2026-04-19 11:30 2.96932 28.66376 33931 ft 500 kts 312°
2026-04-19 11:30 3.01594 28.61210 33937 ft 499 kts 312°
2026-04-19 11:31 3.06255 28.56043 33950 ft 499 kts 312°
2026-04-19 11:31 3.10903 28.50893 33957 ft 499 kts 312°
2026-04-19 11:32 3.15548 28.45779 33961 ft 500 kts 312°
2026-04-19 11:32 3.20248 28.40591 33960 ft 500 kts 312°
2026-04-19 11:33 3.24881 28.35461 33964 ft 501 kts 312°
2026-04-19 11:33 3.29549 28.30263 33962 ft 501 kts 312°
2026-04-19 11:34 3.34216 28.25060 33959 ft 501 kts 312°
2026-04-19 11:34 3.38876 28.19878 33952 ft 501 kts 312°
2026-04-19 11:35 3.43521 28.14721 33946 ft 502 kts 312°
2026-04-19 11:35 3.48193 28.09534 33929 ft 502 kts 312°
2026-04-19 11:36 3.52875 28.04337 33925 ft 502 kts 311°
2026-04-19 11:36 3.57566 27.99132 33918 ft 501 kts 311°
2026-04-19 11:37 3.62208 27.93978 33915 ft 500 kts 311°
2026-04-19 11:37 3.66878 27.88788 33912 ft 500 kts 311°
2026-04-19 11:38 3.71538 27.83610 33908 ft 500 kts 311°
2026-04-19 11:38 3.76174 27.78460 33906 ft 501 kts 311°
2026-04-19 11:39 3.80833 27.73282 33905 ft 501 kts 311°
2026-04-19 11:39 3.85524 27.68069 33905 ft 502 kts 311°
2026-04-19 11:40 3.90190 27.62882 33908 ft 501 kts 311°
2026-04-19 11:40 3.94846 27.57708 33907 ft 500 kts 311°
2026-04-19 11:41 3.99505 27.52526 33907 ft 500 kts 311°
2026-04-19 11:41 4.04157 27.47351 33904 ft 500 kts 311°
2026-04-19 11:42 4.08781 27.42206 33898 ft 501 kts 311°
2026-04-19 11:42 4.13477 27.37001 33895 ft 501 kts 312°
2026-04-19 11:43 4.18144 27.31827 33891 ft 501 kts 311°
2026-04-19 11:43 4.22783 27.26647 33892 ft 501 kts 311°
2026-04-19 11:44 4.27442 27.21453 33900 ft 501 kts 311°
2026-04-19 11:44 4.32107 27.16255 33905 ft 500 kts 311°
2026-04-19 11:45 4.36771 27.11060 33910 ft 501 kts 311°
2026-04-19 11:45 4.41436 27.05861 33908 ft 501 kts 312°
2026-04-19 11:46 4.46081 27.00686 33913 ft 501 kts 311°
2026-04-19 11:46 4.50725 26.95512 33910 ft 501 kts 311°
2026-04-19 11:47 4.55389 26.90315 33908 ft 501 kts 311°
2026-04-19 11:47 4.60057 26.85112 33900 ft 501 kts 311°
2026-04-19 11:48 4.64726 26.79903 33896 ft 501 kts 311°
2026-04-19 11:48 4.69376 26.74717 33896 ft 501 kts 311°
2026-04-19 11:49 4.74041 26.69512 33897 ft 502 kts 312°
2026-04-19 11:49 4.78681 26.64336 33893 ft 501 kts 311°
2026-04-19 11:50 4.83349 26.59127 33894 ft 502 kts 311°
2026-04-19 11:50 4.88019 26.53914 33890 ft 502 kts 311°
2026-04-19 11:51 4.92655 26.48737 33891 ft 501 kts 311°
2026-04-19 11:51 4.97344 26.43501 33891 ft 502 kts 311°
2026-04-19 11:52 5.01977 26.38324 33889 ft 502 kts 311°
2026-04-19 11:52 5.06640 26.33108 33890 ft 502 kts 311°
2026-04-19 11:53 5.11297 26.27875 33888 ft 502 kts 312°
2026-04-19 11:53 5.15953 26.22693 33890 ft 501 kts 312°
2026-04-19 11:54 5.20612 26.17495 33881 ft 501 kts 311°
2026-04-19 11:54 5.25296 26.12257 33875 ft 502 kts 311°
2026-04-19 11:55 5.29958 26.07060 33867 ft 502 kts 312°
2026-04-19 11:55 5.34618 26.01872 33871 ft 501 kts 312°
2026-04-19 11:56 5.39304 25.96651 33871 ft 501 kts 312°
2026-04-19 11:56 5.43947 25.91474 33876 ft 500 kts 312°
2026-04-19 11:57 5.48614 25.86267 33873 ft 501 kts 312°
2026-04-19 11:57 5.53268 25.81075 33875 ft 501 kts 312°
2026-04-19 11:58 5.57916 25.75887 33877 ft 501 kts 312°
2026-04-19 11:58 5.62572 25.70690 33885 ft 500 kts 312°
2026-04-19 11:59 5.67232 25.65485 33896 ft 500 kts 312°
2026-04-19 11:59 5.71867 25.60305 33895 ft 500 kts 312°
2026-04-19 12:00 5.76539 25.55083 33891 ft 499 kts 312°
2026-04-19 12:00 5.81195 25.49883 33891 ft 500 kts 312°
2026-04-19 12:01 5.85823 25.44714 33888 ft 501 kts 312°
2026-04-19 12:01 5.90483 25.39506 33887 ft 500 kts 312°
2026-04-19 12:02 5.95143 25.34291 33883 ft 500 kts 312°
2026-04-19 12:02 5.99784 25.29069 33873 ft 500 kts 312°
2026-04-19 12:03 6.04411 25.23881 33876 ft 501 kts 311°
2026-04-19 12:03 6.09074 25.18655 33883 ft 501 kts 311°
2026-04-19 12:04 6.13748 25.13442 33893 ft 501 kts 311°
2026-04-19 12:04 6.18425 25.08235 33893 ft 501 kts 311°
2026-04-19 12:05 6.23080 25.03032 33887 ft 501 kts 311°
2026-04-19 12:05 6.27752 24.97800 33892 ft 501 kts 311°
2026-04-19 12:06 6.32412 24.92579 33886 ft 501 kts 311°
2026-04-19 12:06 6.37054 24.87374 33886 ft 501 kts 311°
2026-04-19 12:07 6.41705 24.82156 33890 ft 500 kts 311°
2026-04-19 12:07 6.46330 24.76966 33884 ft 500 kts 311°
2026-04-19 12:08 6.50998 24.71730 33888 ft 500 kts 311°
2026-04-19 12:08 6.55632 24.66532 33891 ft 501 kts 311°
2026-04-19 12:09 6.60302 24.61286 33892 ft 501 kts 311°
2026-04-19 12:09 6.64932 24.56082 33894 ft 500 kts 311°
2026-04-19 12:10 6.69560 24.50883 33892 ft 501 kts 311°
2026-04-19 12:10 6.74228 24.45639 33890 ft 500 kts 311°
2026-04-19 12:11 6.78853 24.40442 33891 ft 499 kts 311°
2026-04-19 12:11 6.83497 24.35219 33889 ft 499 kts 311°
2026-04-19 12:12 6.88092 24.30025 33888 ft 499 kts 310°
2026-04-19 12:12 6.92709 24.24803 33888 ft 498 kts 310°
2026-04-19 12:13 6.97322 24.19602 33891 ft 498 kts 311°
2026-04-19 12:13 7.01957 24.14381 33904 ft 497 kts 311°
2026-04-19 12:14 7.06579 24.09174 33913 ft 498 kts 311°
2026-04-19 12:14 7.11170 24.04005 33923 ft 498 kts 311°
2026-04-19 12:15 7.15799 23.98826 33932 ft 498 kts 311°
2026-04-19 12:15 7.20417 23.93639 33940 ft 498 kts 310°
2026-04-19 12:16 7.25016 23.88453 33943 ft 497 kts 310°
2026-04-19 12:16 7.29634 23.83240 33941 ft 497 kts 310°
2026-04-19 12:17 7.34228 23.78052 33939 ft 497 kts 310°
2026-04-19 12:17 7.38823 23.72861 33937 ft 497 kts 310°
2026-04-19 12:18 7.43437 23.67646 33936 ft 497 kts 310°
2026-04-19 12:18 7.48033 23.62461 33934 ft 497 kts 310°
2026-04-19 12:19 7.52642 23.57260 33927 ft 497 kts 310°
2026-04-19 12:19 7.57212 23.52097 33921 ft 496 kts 310°
2026-04-19 12:20 7.61822 23.46880 33916 ft 496 kts 310°
2026-04-19 12:20 7.66404 23.41695 33914 ft 496 kts 310°
2026-04-19 12:21 7.70972 23.36524 33910 ft 496 kts 310°
2026-04-19 12:21 7.75560 23.31315 33907 ft 496 kts 310°
2026-04-19 12:22 7.80117 23.26127 33908 ft 496 kts 310°
2026-04-19 12:22 7.84694 23.20931 33915 ft 496 kts 310°
2026-04-19 12:23 7.89277 23.15734 33925 ft 495 kts 310°
2026-04-19 12:23 7.93855 23.10544 33935 ft 494 kts 310°
2026-04-19 12:24 7.98407 23.05380 33939 ft 493 kts 310°
2026-04-19 12:24 8.02970 23.00201 33943 ft 493 kts 310°
2026-04-19 12:25 8.07545 22.95011 33936 ft 494 kts 310°
2026-04-19 12:25 8.12089 22.89864 33943 ft 494 kts 310°
2026-04-19 12:26 8.16793 22.84819 33942 ft 495 kts 314°
2026-04-19 12:26 8.21914 22.80146 33942 ft 495 kts 317°
2026-04-19 12:27 8.27088 22.75561 33946 ft 495 kts 317°
2026-04-19 12:27 8.32252 22.70978 33944 ft 494 kts 317°
2026-04-19 12:28 8.40006 22.64082 33931 ft 494 kts 317°
2026-04-19 12:28 8.45168 22.59487 33923 ft 494 kts 317°
2026-04-19 12:29 8.50301 22.54915 33916 ft 495 kts 317°
2026-04-19 12:29 8.55483 22.50297 33904 ft 494 kts 317°
2026-04-19 12:30 8.60629 22.45709 33893 ft 495 kts 317°
2026-04-19 12:30 8.65779 22.41117 33883 ft 494 kts 317°
2026-04-19 12:31 8.70957 22.36496 33875 ft 495 kts 317°
2026-04-19 12:31 8.76122 22.31873 33866 ft 494 kts 316°
2026-04-19 12:32 8.81229 22.27285 33867 ft 494 kts 316°
2026-04-19 12:32 8.86385 22.22667 33865 ft 493 kts 316°
2026-04-19 12:33 8.91517 22.18077 33862 ft 493 kts 316°
2026-04-19 12:33 8.96657 22.13483 33855 ft 494 kts 316°
2026-04-19 12:34 9.01821 22.08865 33847 ft 494 kts 316°
2026-04-19 12:34 9.06949 22.04277 33836 ft 494 kts 316°
2026-04-19 12:35 9.12121 21.99654 33830 ft 493 kts 316°
2026-04-19 12:35 9.17272 21.95073 33826 ft 493 kts 316°
2026-04-19 12:36 9.22420 21.90474 33824 ft 494 kts 316°
2026-04-19 12:36 9.27551 21.85879 33822 ft 495 kts 316°
2026-04-19 12:37 9.32705 21.81258 33814 ft 496 kts 316°
2026-04-19 12:37 9.37894 21.76605 33810 ft 496 kts 316°
2026-04-19 12:38 9.43066 21.71962 33808 ft 496 kts 316°
2026-04-19 12:38 9.48215 21.67336 33810 ft 497 kts 316°
2026-04-19 12:39 9.53415 21.62667 33808 ft 498 kts 317°
2026-04-19 12:39 9.58666 21.58086 33808 ft 498 kts 317°
2026-04-19 12:40 9.63912 21.53547 33807 ft 498 kts 317°
2026-04-19 12:40 9.69194 21.48960 33803 ft 499 kts 317°
2026-04-19 12:41 9.74449 21.44385 33805 ft 498 kts 317°
2026-04-19 12:41 9.79734 21.39784 33803 ft 499 kts 317°
2026-04-19 12:42 9.84989 21.35204 33800 ft 499 kts 317°
2026-04-19 12:42 9.90266 21.30577 33794 ft 500 kts 317°
2026-04-19 12:43 9.95528 21.25961 33798 ft 500 kts 317°
2026-04-19 12:43 10.00774 21.21372 33794 ft 500 kts 317°
2026-04-19 12:44 10.06075 21.16739 33793 ft 500 kts 317°
2026-04-19 12:44 10.11328 21.12153 33791 ft 500 kts 317°
2026-04-19 12:45 10.16620 21.07558 33799 ft 500 kts 317°
2026-04-19 12:45 10.21899 21.02960 33810 ft 500 kts 317°
2026-04-19 12:46 10.27162 20.98363 33816 ft 500 kts 317°
2026-04-19 12:46 10.32425 20.93756 33817 ft 500 kts 317°
2026-04-19 12:47 10.37706 20.89134 33820 ft 499 kts 317°
2026-04-19 12:47 10.42959 20.84532 33821 ft 499 kts 317°
2026-04-19 12:48 10.48190 20.79947 33820 ft 498 kts 317°
2026-04-19 12:48 10.53469 20.75318 33815 ft 498 kts 317°
2026-04-19 12:49 10.58693 20.70736 33812 ft 497 kts 317°
2026-04-19 12:49 10.63907 20.66159 33810 ft 496 kts 317°
2026-04-19 12:50 10.69156 20.61549 33812 ft 496 kts 317°
2026-04-19 12:50 10.74379 20.56961 33816 ft 496 kts 316°
2026-04-19 12:51 10.79570 20.52400 33817 ft 495 kts 316°
2026-04-19 12:51 10.84808 20.47794 33821 ft 495 kts 316°
2026-04-19 12:52 10.89991 20.43232 33825 ft 495 kts 316°
2026-04-19 12:52 10.95211 20.38637 33822 ft 495 kts 316°
2026-04-19 12:53 11.00412 20.34057 33826 ft 494 kts 316°
2026-04-19 12:53 11.05590 20.29464 33823 ft 494 kts 316°
2026-04-19 12:54 11.10801 20.24852 33826 ft 494 kts 316°
2026-04-19 12:54 11.15996 20.20293 34044 ft 495 kts 316°
2026-04-19 12:55 11.18619 20.17990 34266 ft 494 kts 316°
2026-04-19 12:55 11.21202 20.15718 34472 ft 492 kts 316°
2026-04-19 12:55 11.23772 20.13453 34658 ft 492 kts 316°
2026-04-19 12:55 11.26362 20.11168 34827 ft 491 kts 316°
2026-04-19 12:56 11.28950 20.08883 34986 ft 490 kts 316°
2026-04-19 12:56 11.31511 20.06620 35135 ft 490 kts 316°
2026-04-19 12:56 11.34097 20.04335 35268 ft 489 kts 316°
2026-04-19 12:56 11.36672 20.02060 35396 ft 489 kts 316°
2026-04-19 12:57 11.39237 19.99793 35531 ft 488 kts 316°
2026-04-19 12:57 11.41814 19.97513 35670 ft 488 kts 315°
2026-04-19 12:57 11.44344 19.95275 35804 ft 487 kts 316°
2026-04-19 12:57 11.46916 19.93000 35808 ft 487 kts 315°
2026-04-19 12:58 11.52036 19.88465 35822 ft 487 kts 316°
2026-04-19 12:58 11.57150 19.83934 35814 ft 487 kts 316°
2026-04-19 12:59 11.62264 19.79402 35820 ft 487 kts 316°
2026-04-19 12:59 11.67371 19.74853 35824 ft 487 kts 315°
2026-04-19 13:00 11.72460 19.70281 35827 ft 487 kts 315°
2026-04-19 13:00 11.77559 19.65696 35831 ft 487 kts 315°
2026-04-19 13:01 11.82618 19.61148 35836 ft 487 kts 315°
2026-04-19 13:01 11.87714 19.56564 35840 ft 487 kts 315°
2026-04-19 13:02 11.92762 19.52020 35846 ft 486 kts 315°
2026-04-19 13:02 11.97838 19.47447 35851 ft 486 kts 315°
2026-04-19 13:03 12.02914 19.42875 35851 ft 486 kts 315°
2026-04-19 13:03 12.07991 19.38299 35849 ft 485 kts 315°
2026-04-19 13:04 12.13050 19.33746 35847 ft 485 kts 315°
2026-04-19 13:04 12.18102 19.29184 35839 ft 484 kts 315°
2026-04-19 13:05 12.23160 19.24614 35842 ft 484 kts 315°
2026-04-19 13:05 12.28201 19.20059 35844 ft 484 kts 315°
2026-04-19 13:06 12.33235 19.15505 35846 ft 485 kts 315°
2026-04-19 13:06 12.38286 19.10936 35838 ft 484 kts 315°
2026-04-19 13:07 12.43351 19.06355 35838 ft 484 kts 315°
2026-04-19 13:07 12.48378 19.01802 35835 ft 483 kts 315°
2026-04-19 13:08 12.53428 18.97227 35833 ft 482 kts 315°
2026-04-19 13:08 12.58438 18.92686 35823 ft 482 kts 315°
2026-04-19 13:09 12.63469 18.88128 35827 ft 483 kts 315°
2026-04-19 13:09 12.68495 18.83568 35819 ft 482 kts 315°
2026-04-19 13:10 12.73525 18.79003 35816 ft 482 kts 315°
2026-04-19 13:10 12.78529 18.74454 35811 ft 482 kts 314°
2026-04-19 13:11 12.83541 18.69896 35813 ft 482 kts 314°
2026-04-19 13:11 12.88558 18.65339 35808 ft 482 kts 314°
2026-04-19 13:12 12.93560 18.60791 35804 ft 481 kts 315°
2026-04-19 13:12 12.98572 18.56229 35805 ft 481 kts 315°
2026-04-19 13:13 13.03584 18.51665 35806 ft 482 kts 315°
2026-04-19 13:13 13.08591 18.47101 35804 ft 482 kts 314°
2026-04-19 13:14 13.13621 18.42530 35803 ft 483 kts 315°
2026-04-19 13:14 13.18645 18.37972 35802 ft 483 kts 314°
2026-04-19 13:15 13.23655 18.33402 35802 ft 482 kts 314°
2026-04-19 13:15 13.28645 18.28814 35800 ft 482 kts 314°
2026-04-19 13:16 13.33654 18.24222 35800 ft 481 kts 314°
2026-04-19 13:16 13.38647 18.19652 35807 ft 480 kts 314°
2026-04-19 13:17 13.43652 18.15072 35809 ft 481 kts 314°
2026-04-19 13:17 13.48620 18.10528 35818 ft 481 kts 314°
2026-04-19 13:18 13.53644 18.05929 35815 ft 481 kts 314°
2026-04-19 13:18 13.58636 18.01353 35813 ft 482 kts 314°
2026-04-19 13:19 13.63627 17.96775 35814 ft 481 kts 314°
2026-04-19 13:19 13.68621 17.92192 35813 ft 481 kts 314°
2026-04-19 13:20 13.73601 17.87621 35817 ft 481 kts 314°
2026-04-19 13:20 13.78611 17.83016 35809 ft 481 kts 314°
2026-04-19 13:21 13.83575 17.78453 35817 ft 480 kts 314°
2026-04-19 13:21 13.88554 17.73873 35817 ft 481 kts 314°
2026-04-19 13:22 13.93541 17.69283 35819 ft 480 kts 314°
2026-04-19 13:22 13.98547 17.64671 35819 ft 480 kts 314°
2026-04-19 13:23 14.03511 17.60097 35819 ft 479 kts 314°
2026-04-19 13:23 14.08452 17.55540 35814 ft 479 kts 314°
2026-04-19 13:24 14.13457 17.50938 35815 ft 480 kts 314°
2026-04-19 13:24 14.18433 17.46372 35814 ft 479 kts 314°
2026-04-19 13:25 14.23391 17.41803 35815 ft 479 kts 313°
2026-04-19 13:25 14.28346 17.37222 35820 ft 479 kts 314°
2026-04-19 13:26 14.33287 17.32643 35825 ft 478 kts 313°
2026-04-19 13:26 14.38211 17.28058 35827 ft 477 kts 313°
2026-04-19 13:27 14.43140 17.23482 35827 ft 477 kts 313°
2026-04-19 13:27 14.48107 17.18873 35827 ft 478 kts 313°
2026-04-19 13:28 14.53024 17.14314 35833 ft 477 kts 313°
2026-04-19 13:28 14.57958 17.09734 35829 ft 477 kts 313°
2026-04-19 13:29 14.62902 17.05144 35829 ft 477 kts 313°
2026-04-19 13:29 14.67805 17.00588 35827 ft 476 kts 313°
2026-04-19 13:30 14.72737 16.96006 35823 ft 476 kts 313°
2026-04-19 13:31 14.80128 16.89131 35827 ft 476 kts 313°
2026-04-19 13:31 14.85047 16.84550 35836 ft 477 kts 313°
2026-04-19 13:32 14.89970 16.79962 35838 ft 476 kts 313°
2026-04-19 13:32 14.94880 16.75383 35843 ft 476 kts 313°
2026-04-19 13:33 14.99799 16.70793 35843 ft 476 kts 313°
2026-04-19 13:33 15.04733 16.66188 35843 ft 476 kts 313°
2026-04-19 13:34 15.09627 16.61616 35845 ft 475 kts 313°
2026-04-19 13:34 15.14550 16.57040 35844 ft 475 kts 313°
2026-04-19 13:35 15.19449 16.52482 35843 ft 476 kts 313°
2026-04-19 13:35 15.24377 16.47878 35848 ft 475 kts 313°
2026-04-19 13:36 15.29273 16.43296 35847 ft 475 kts 313°
2026-04-19 13:36 15.34169 16.38707 35843 ft 474 kts 313°
2026-04-19 13:37 15.39066 16.34114 35851 ft 474 kts 312°
2026-04-19 13:37 15.43946 16.29505 35845 ft 474 kts 312°
2026-04-19 13:38 15.48825 16.24904 35843 ft 474 kts 312°
2026-04-19 13:38 15.53698 16.20317 35847 ft 475 kts 312°
2026-04-19 13:39 15.58573 16.15730 35844 ft 473 kts 312°
2026-04-19 13:39 15.63448 16.11140 35841 ft 473 kts 312°
2026-04-19 13:40 15.68333 16.06541 35847 ft 474 kts 312°
2026-04-19 13:40 15.73209 16.01946 35845 ft 473 kts 312°
2026-04-19 13:41 15.78093 15.97339 35854 ft 474 kts 312°
2026-04-19 13:41 15.82968 15.92740 35856 ft 473 kts 312°
2026-04-19 13:42 15.87846 15.88135 35858 ft 473 kts 312°
2026-04-19 13:42 15.92705 15.83544 35855 ft 471 kts 312°
2026-04-19 13:43 15.97546 15.78965 35859 ft 471 kts 312°
2026-04-19 13:43 16.02368 15.74403 35859 ft 471 kts 311°
2026-04-19 13:44 16.07217 15.69813 35867 ft 469 kts 311°
2026-04-19 13:44 16.12057 15.65231 35858 ft 470 kts 312°
2026-04-19 13:45 16.16884 15.60686 35869 ft 468 kts 312°
2026-04-19 13:45 16.21684 15.56151 35865 ft 469 kts 312°
2026-04-19 13:46 16.26514 15.51570 35863 ft 469 kts 311°
2026-04-19 13:46 16.31325 15.46997 35869 ft 468 kts 311°
2026-04-19 13:47 16.36140 15.42420 35866 ft 469 kts 311°
2026-04-19 13:47 16.40936 15.37859 35862 ft 468 kts 311°
2026-04-19 13:48 16.45738 15.33282 35870 ft 468 kts 311°
2026-04-19 13:48 16.50537 15.28680 35866 ft 468 kts 311°
2026-04-19 13:49 16.55315 15.24109 35873 ft 466 kts 311°
2026-04-19 13:49 16.60085 15.19553 35874 ft 467 kts 311°
2026-04-19 13:50 16.64895 15.14959 35876 ft 467 kts 311°
2026-04-19 13:50 16.69667 15.10398 35870 ft 466 kts 311°
2026-04-19 13:51 16.74452 15.05823 35883 ft 466 kts 311°
2026-04-19 13:51 16.79219 15.01263 35878 ft 466 kts 311°
2026-04-19 13:52 16.84004 14.96678 35887 ft 466 kts 311°
2026-04-19 13:52 16.88775 14.92107 35884 ft 466 kts 311°
2026-04-19 13:53 16.93566 14.87516 35889 ft 465 kts 311°
2026-04-19 13:53 16.98324 14.82951 35877 ft 466 kts 311°
2026-04-19 13:54 17.03099 14.78363 35879 ft 466 kts 311°
2026-04-19 13:54 17.07871 14.73779 35883 ft 467 kts 311°
2026-04-19 13:55 17.12632 14.69215 35887 ft 466 kts 311°
2026-04-19 13:55 17.17411 14.64642 35891 ft 465 kts 311°
2026-04-19 13:56 17.22187 14.60048 35893 ft 466 kts 311°
2026-04-19 13:56 17.26936 14.55465 35900 ft 464 kts 311°
2026-04-19 13:57 17.31692 14.50879 35904 ft 464 kts 311°
2026-04-19 13:57 17.36419 14.46329 35911 ft 463 kts 311°
2026-04-19 13:58 17.41164 14.41748 35912 ft 462 kts 311°
2026-04-19 13:58 17.45879 14.37195 35919 ft 463 kts 311°
2026-04-19 13:59 17.50619 14.32602 35920 ft 462 kts 310°
2026-04-19 13:59 17.55326 14.28018 35919 ft 461 kts 310°
2026-04-19 14:00 17.60003 14.23474 35920 ft 461 kts 310°
2026-04-19 14:00 17.64725 14.18890 35921 ft 460 kts 310°
2026-04-19 14:01 17.69429 14.14326 35927 ft 460 kts 310°
2026-04-19 14:01 17.74109 14.09784 35926 ft 460 kts 310°
2026-04-19 14:02 17.78804 14.05220 35932 ft 460 kts 310°
2026-04-19 14:02 17.83510 14.00643 35928 ft 460 kts 310°
2026-04-19 14:03 17.88174 13.96105 35934 ft 459 kts 310°
2026-04-19 14:03 17.92861 13.91538 35934 ft 459 kts 310°
2026-04-19 14:04 17.97545 13.86972 35938 ft 459 kts 310°
2026-04-19 14:04 18.02221 13.82409 35941 ft 458 kts 310°
2026-04-19 14:05 18.06884 13.77856 35943 ft 457 kts 310°
2026-04-19 14:05 18.11537 13.73314 35949 ft 455 kts 310°
2026-04-19 14:06 18.16177 13.68809 35949 ft 454 kts 310°
2026-04-19 14:06 18.20818 13.64288 35951 ft 454 kts 310°
2026-04-19 14:07 18.25421 13.59788 35958 ft 452 kts 310°
2026-04-19 14:07 18.30039 13.55265 35960 ft 453 kts 310°
2026-04-19 14:08 18.34630 13.50765 35960 ft 451 kts 310°
2026-04-19 14:08 18.39239 13.46240 35963 ft 452 kts 310°
2026-04-19 14:09 18.43802 13.41756 35953 ft 450 kts 310°
2026-04-19 14:09 18.48366 13.37271 35958 ft 449 kts 310°
2026-04-19 14:10 18.52928 13.32774 35950 ft 449 kts 309°
2026-04-19 14:10 18.57464 13.28283 35945 ft 449 kts 309°
2026-04-19 14:11 18.62035 13.23766 35951 ft 448 kts 309°
2026-04-19 14:11 18.66553 13.19312 35956 ft 447 kts 309°
2026-04-19 14:12 18.71103 13.14819 35953 ft 447 kts 309°
2026-04-19 14:12 18.75649 13.10331 35954 ft 447 kts 309°
2026-04-19 14:13 18.80166 13.05869 35956 ft 446 kts 309°
2026-04-19 14:13 18.84681 13.01404 35961 ft 445 kts 309°
2026-04-19 14:14 18.89205 12.96927 35958 ft 445 kts 309°
2026-04-19 14:14 18.93708 12.92482 35960 ft 446 kts 310°
2026-04-19 14:15 18.98501 12.88298 35963 ft 451 kts 315°
2026-04-19 14:15 19.03747 12.84521 35960 ft 457 kts 320°
2026-04-19 14:16 19.09176 12.81054 35959 ft 458 kts 320°
2026-04-19 14:16 19.14664 12.77590 35954 ft 457 kts 320°
2026-04-19 14:17 19.20136 12.74135 35954 ft 457 kts 320°
2026-04-19 14:17 19.25595 12.70672 35959 ft 458 kts 320°
2026-04-19 14:18 19.31024 12.67218 35967 ft 458 kts 320°
2026-04-19 14:18 19.36468 12.63753 35969 ft 457 kts 320°
2026-04-19 14:19 19.41941 12.60260 35967 ft 457 kts 320°
2026-04-19 14:19 19.47410 12.56772 35973 ft 457 kts 320°
2026-04-19 14:20 19.52835 12.53306 35972 ft 457 kts 320°
2026-04-19 14:20 19.58255 12.49842 35975 ft 455 kts 320°
2026-04-19 14:21 19.63722 12.46345 35972 ft 454 kts 320°
2026-04-19 14:21 19.69121 12.42891 35974 ft 453 kts 320°
2026-04-19 14:22 19.74507 12.39440 35969 ft 453 kts 320°
2026-04-19 14:22 19.79897 12.35980 35971 ft 453 kts 320°
2026-04-19 14:23 19.85297 12.32501 35971 ft 452 kts 320°
2026-04-19 14:23 19.90654 12.29036 35971 ft 450 kts 319°
2026-04-19 14:24 19.96012 12.25583 35970 ft 450 kts 319°
2026-04-19 14:24 20.01387 12.22121 35955 ft 451 kts 319°
2026-04-19 14:25 20.06769 12.18655 35954 ft 452 kts 320°
2026-04-19 14:25 20.12154 12.15192 35952 ft 451 kts 319°
2026-04-19 14:26 20.17523 12.11753 35959 ft 453 kts 319°
2026-04-19 14:26 20.22904 12.08292 35958 ft 451 kts 319°
2026-04-19 14:27 20.28306 12.04805 35958 ft 453 kts 319°
2026-04-19 14:27 20.33688 12.01328 35964 ft 454 kts 319°
2026-04-19 14:28 20.39081 11.97838 35967 ft 452 kts 319°
2026-04-19 14:28 20.44432 11.94374 35972 ft 453 kts 319°
2026-04-19 14:29 20.49836 11.90866 35970 ft 453 kts 319°
2026-04-19 14:29 20.55198 11.87391 35986 ft 451 kts 319°
2026-04-19 14:30 20.60593 11.83888 35984 ft 452 kts 319°
2026-04-19 14:30 20.65958 11.80401 35993 ft 452 kts 319°
2026-04-19 14:31 20.71339 11.76905 35992 ft 451 kts 319°
2026-04-19 14:31 20.76698 11.73414 36003 ft 452 kts 319°
2026-04-19 14:31 20.79369 11.71673 36106 ft 452 kts 318°
2026-04-19 14:32 20.82044 11.69930 36242 ft 452 kts 318°
2026-04-19 14:32 20.84746 11.68170 36356 ft 452 kts 318°
2026-04-19 14:32 20.87429 11.66417 36439 ft 452 kts 318°
2026-04-19 14:32 20.90110 11.64671 36578 ft 452 kts 318°
2026-04-19 14:33 20.92790 11.62919 36666 ft 452 kts 318°
2026-04-19 14:33 20.98201 11.59385 36789 ft 454 kts 318°
2026-04-19 14:34 21.03580 11.55865 36970 ft 453 kts 317°
2026-04-19 14:34 21.06249 11.54120 37104 ft 452 kts 317°
2026-04-19 14:34 21.08959 11.52347 37174 ft 453 kts 317°
2026-04-19 14:35 21.17060 11.47064 37286 ft 455 kts 317°
2026-04-19 14:35 21.22482 11.43520 37183 ft 459 kts 317°
2026-04-19 14:36 21.27927 11.39953 37091 ft 460 kts 317°
2026-04-19 14:36 21.33411 11.36358 37178 ft 459 kts 317°
2026-04-19 14:37 21.38859 11.32767 37287 ft 460 kts 317°
2026-04-19 14:37 21.41464 11.31041 37368 ft 458 kts 317°
2026-04-19 14:38 21.43795 11.29501 37470 ft 458 kts 316°
2026-04-19 14:38 21.46528 11.27694 37561 ft 458 kts 317°
2026-04-19 14:38 21.51969 11.24098 37658 ft 460 kts 316°
2026-04-19 14:39 21.57427 11.20495 37695 ft 460 kts 316°
2026-04-19 14:39 21.62877 11.16899 37830 ft 460 kts 316°
2026-04-19 14:40 21.68325 11.13301 37976 ft 459 kts 316°
2026-04-19 14:40 21.73749 11.09713 38025 ft 460 kts 316°
2026-04-19 14:41 21.79206 11.06100 38020 ft 461 kts 316°
2026-04-19 14:41 21.84682 11.02471 38024 ft 459 kts 316°
2026-04-19 14:42 21.90112 10.98871 38024 ft 461 kts 315°
2026-04-19 14:42 21.95565 10.95254 38024 ft 459 kts 315°
2026-04-19 14:43 22.01018 10.91631 38030 ft 460 kts 315°
2026-04-19 14:43 22.06459 10.88011 38028 ft 460 kts 316°
2026-04-19 14:44 22.11908 10.84389 38033 ft 459 kts 316°
2026-04-19 14:44 22.17351 10.80791 38039 ft 458 kts 316°
2026-04-19 14:45 22.22811 10.77165 38036 ft 458 kts 316°
2026-04-19 14:45 22.28211 10.73566 38040 ft 457 kts 315°
2026-04-19 14:46 22.33622 10.69952 38048 ft 455 kts 315°
2026-04-19 14:46 22.39006 10.66349 38052 ft 456 kts 316°
2026-04-19 14:47 22.44404 10.62738 38059 ft 457 kts 315°
2026-04-19 14:47 22.49781 10.59134 38063 ft 456 kts 315°
2026-04-19 14:48 22.55174 10.55515 38061 ft 455 kts 315°
2026-04-19 14:48 22.60537 10.51910 38065 ft 456 kts 316°
2026-04-19 14:49 22.65984 10.48326 38067 ft 460 kts 317°
2026-04-19 14:49 22.71538 10.44885 38071 ft 458 kts 317°
2026-04-19 14:50 22.77053 10.41465 38071 ft 458 kts 318°
2026-04-19 14:50 22.82592 10.38010 38074 ft 457 kts 317°
2026-04-19 14:51 22.88109 10.34560 38080 ft 457 kts 317°
2026-04-19 14:51 22.93581 10.31106 38075 ft 457 kts 317°
2026-04-19 14:52 22.99098 10.27630 38072 ft 456 kts 317°
2026-04-19 14:52 23.04591 10.24174 38068 ft 457 kts 317°
2026-04-19 14:53 23.10084 10.20718 38062 ft 458 kts 317°
2026-04-19 14:53 23.15636 10.17246 38066 ft 457 kts 318°
2026-04-19 14:54 23.21146 10.13797 38068 ft 457 kts 318°
2026-04-19 14:54 23.26641 10.10343 38071 ft 457 kts 317°
2026-04-19 14:55 23.32161 10.06862 38079 ft 456 kts 317°
2026-04-19 14:55 23.37650 10.03395 38076 ft 457 kts 317°
2026-04-19 14:56 23.43118 9.99938 38081 ft 456 kts 317°
2026-04-19 14:56 23.48627 9.96457 38080 ft 456 kts 317°
2026-04-19 14:57 23.54089 9.92997 38087 ft 457 kts 318°
2026-04-19 14:57 23.59574 9.89520 38092 ft 456 kts 317°
2026-04-19 14:58 23.65055 9.86046 38105 ft 455 kts 317°
2026-04-19 14:58 23.70536 9.82561 38116 ft 456 kts 317°
2026-04-19 14:59 23.75976 9.79105 38124 ft 454 kts 317°
2026-04-19 14:59 23.81437 9.75627 38120 ft 453 kts 318°
2026-04-19 15:00 23.86872 9.72163 38130 ft 454 kts 317°
2026-04-19 15:00 23.92344 9.68671 38131 ft 454 kts 317°
2026-04-19 15:01 23.97811 9.65179 38134 ft 454 kts 317°
2026-04-19 15:01 24.03277 9.61687 38147 ft 454 kts 318°
2026-04-19 15:02 24.08720 9.58208 38142 ft 454 kts 317°
2026-04-19 15:02 24.14205 9.54709 38137 ft 454 kts 317°
2026-04-19 15:03 24.19657 9.51254 38135 ft 455 kts 319°
2026-04-19 15:03 24.25499 9.48306 38135 ft 468 kts 327°
2026-04-19 15:04 24.31833 9.46226 38136 ft 484 kts 335°
2026-04-19 15:04 24.38593 9.45144 38141 ft 499 kts 345°
2026-04-19 15:05 24.45552 9.44888 38149 ft 505 kts 347°
2026-04-19 15:05 24.52614 9.44739 38157 ft 505 kts 347°
2026-04-19 15:06 24.59632 9.44580 38169 ft 505 kts 347°
2026-04-19 15:06 24.66640 9.44413 38188 ft 502 kts 347°
2026-04-19 15:07 24.73631 9.44237 38206 ft 501 kts 347°
2026-04-19 15:07 24.80620 9.44056 38212 ft 502 kts 347°
2026-04-19 15:08 24.87587 9.43884 38215 ft 499 kts 347°
2026-04-19 15:08 24.94525 9.43706 38213 ft 498 kts 348°
2026-04-19 15:09 25.01402 9.43533 38225 ft 496 kts 347°
2026-04-19 15:09 25.08338 9.43351 38208 ft 496 kts 348°
2026-04-19 15:10 25.15238 9.43179 38202 ft 497 kts 348°
2026-04-19 15:10 25.22154 9.43009 38184 ft 495 kts 348°
2026-04-19 15:11 25.29024 9.42836 38175 ft 495 kts 348°
2026-04-19 15:11 25.35900 9.42659 38176 ft 494 kts 349°
2026-04-19 15:12 25.42758 9.42486 38158 ft 493 kts 349°
2026-04-19 15:12 25.49590 9.42311 38153 ft 491 kts 349°
2026-04-19 15:13 25.56481 9.42131 38141 ft 492 kts 349°
2026-04-19 15:13 25.63285 9.41960 38149 ft 491 kts 349°
2026-04-19 15:14 25.70138 9.41780 38133 ft 492 kts 349°
2026-04-19 15:14 25.76984 9.41607 38125 ft 491 kts 349°
2026-04-19 15:15 25.83806 9.41430 38138 ft 491 kts 350°
2026-04-19 15:15 25.90654 9.41251 38124 ft 490 kts 351°
2026-04-19 15:16 25.97426 9.41077 38110 ft 489 kts 351°
2026-04-19 15:16 26.04268 9.40902 38112 ft 490 kts 350°
2026-04-19 15:17 26.11056 9.40726 38105 ft 489 kts 351°
2026-04-19 15:17 26.17880 9.40554 38101 ft 489 kts 351°
2026-04-19 15:18 26.24670 9.40384 38098 ft 488 kts 351°
2026-04-19 15:18 26.31465 9.40208 38093 ft 487 kts 351°
2026-04-19 15:19 26.38262 9.40032 38090 ft 488 kts 351°
2026-04-19 15:19 26.45034 9.39855 38092 ft 487 kts 351°
2026-04-19 15:20 26.51788 9.39679 38090 ft 486 kts 351°
2026-04-19 15:20 26.58572 9.39502 38089 ft 487 kts 351°
2026-04-19 15:21 26.65328 9.39325 38080 ft 487 kts 351°
2026-04-19 15:21 26.72111 9.39148 38079 ft 486 kts 351°
2026-04-19 15:22 26.78859 9.38971 38079 ft 485 kts 351°
2026-04-19 15:22 26.85626 9.38794 38080 ft 485 kts 352°
2026-04-19 15:23 26.92357 9.38616 38079 ft 485 kts 352°
2026-04-19 15:23 26.99128 9.38439 38067 ft 485 kts 352°
2026-04-19 15:24 27.05866 9.38262 38082 ft 485 kts 352°
2026-04-19 15:24 27.12643 9.38086 38080 ft 483 kts 352°
2026-04-19 15:25 27.19332 9.37914 38089 ft 483 kts 352°
2026-04-19 15:25 27.26076 9.37739 38087 ft 483 kts 352°
2026-04-19 15:26 27.32783 9.37563 38088 ft 482 kts 352°
2026-04-19 15:26 27.39478 9.37387 38085 ft 481 kts 352°
2026-04-19 15:27 27.46183 9.37209 38085 ft 481 kts 352°
2026-04-19 15:27 27.52874 9.37031 38094 ft 481 kts 352°
2026-04-19 15:28 27.59572 9.36853 38093 ft 480 kts 352°
2026-04-19 15:28 27.66220 9.36675 38085 ft 479 kts 352°
2026-04-19 15:29 27.72915 9.36496 38089 ft 479 kts 352°
2026-04-19 15:29 27.79565 9.36319 38102 ft 479 kts 352°
2026-04-19 15:30 27.86240 9.36140 38099 ft 478 kts 352°
2026-04-19 15:30 27.92887 9.35965 38098 ft 477 kts 352°
2026-04-19 15:31 27.99482 9.35787 38087 ft 476 kts 352°
2026-04-19 15:31 28.06132 9.35609 38082 ft 477 kts 352°
2026-04-19 15:32 28.12756 9.35431 38095 ft 477 kts 352°
2026-04-19 15:32 28.19420 9.35257 38101 ft 476 kts 352°
2026-04-19 15:33 28.26016 9.35082 38102 ft 476 kts 352°
2026-04-19 15:33 28.32638 9.34896 38102 ft 476 kts 351°
2026-04-19 15:34 28.39289 9.34686 38103 ft 475 kts 351°
2026-04-19 15:34 28.45887 9.34493 38102 ft 474 kts 351°
2026-04-19 15:35 28.52464 9.34310 38098 ft 475 kts 351°
2026-04-19 15:35 28.59069 9.34129 38103 ft 474 kts 352°
2026-04-19 15:36 28.65660 9.33949 38100 ft 474 kts 352°
2026-04-19 15:36 28.72246 9.33771 38103 ft 474 kts 352°
2026-04-19 15:37 28.78828 9.33591 38108 ft 473 kts 352°
2026-04-19 15:37 28.85427 9.33412 38109 ft 473 kts 352°
2026-04-19 15:38 28.92007 9.33233 38107 ft 473 kts 352°
2026-04-19 15:38 28.98601 9.33053 38102 ft 473 kts 352°
2026-04-19 15:39 29.05170 9.32873 38095 ft 473 kts 352°
2026-04-19 15:39 29.11736 9.32695 38096 ft 472 kts 352°
2026-04-19 15:40 29.18323 9.32520 38094 ft 472 kts 352°
2026-04-19 15:40 29.24894 9.32346 38092 ft 472 kts 352°
2026-04-19 15:41 29.31465 9.32167 38096 ft 471 kts 352°
2026-04-19 15:41 29.38009 9.31988 38088 ft 471 kts 352°
2026-04-19 15:42 29.44574 9.31808 38090 ft 471 kts 352°
2026-04-19 15:42 29.51150 9.31627 38085 ft 471 kts 352°
2026-04-19 15:43 29.57696 9.31447 38087 ft 471 kts 352°
2026-04-19 15:44 29.67514 9.31176 38085 ft 470 kts 352°
2026-04-19 15:44 29.74063 9.30994 38084 ft 471 kts 352°
2026-04-19 15:45 29.80576 9.30814 38091 ft 470 kts 352°
2026-04-19 15:45 29.87117 9.30632 38080 ft 470 kts 352°
2026-04-19 15:46 29.93676 9.30449 38076 ft 470 kts 352°
2026-04-19 15:46 30.00214 9.30268 38074 ft 470 kts 352°
2026-04-19 15:47 30.06756 9.30087 38084 ft 470 kts 352°
2026-04-19 15:47 30.13273 9.29905 38096 ft 469 kts 352°